Year,Month,Day,Hour,Minute,Value (Times are PST for temperature in C)
2013,02,19,09,03,5.10
2013,02,19,09,04,5.10
2013,02,19,09,05,5.10
2013,02,19,09,06,5.10
2013,02,19,09,07,5.10
2013,02,19,09,08,5.10
2013,02,19,09,09,5.10
2013,02,19,09,10,5.10
2013,02,19,09,11,5.10
2013,02,19,09,12,5.10
2013,02,19,09,29,5.40
2013,02,19,09,30,5.40
2013,02,19,09,31,5.40
2013,02,19,09,32,5.40
2013,02,19,09,33,5.40
2013,02,19,09,34,5.40
2013,02,19,09,35,5.40
2013,02,19,09,36,5.40
2013,02,19,09,37,5.40
2013,02,19,09,38,5.40
2013,02,19,09,39,5.40
2013,02,19,10,29,6.50
2013,02,19,10,30,6.60
2013,02,19,10,31,6.60
2013,02,19,10,32,6.60
2013,02,19,10,33,6.60
2013,02,19,10,34,6.60
2013,02,19,10,35,6.50
2013,02,19,10,36,6.50
2013,02,19,10,37,6.40
2013,02,19,10,38,6.40
2013,02,19,10,39,6.40
2013,02,19,10,40,6.50
2013,02,19,10,41,6.60
2013,02,19,10,42,6.70
2013,02,19,10,43,6.70
2013,02,19,10,44,6.80
2013,02,19,10,45,6.80
2013,02,19,10,46,6.80
2013,02,19,10,47,6.90
2013,02,19,10,48,6.90
2013,02,19,10,49,6.90
2013,02,19,10,50,7.00
2013,02,19,10,51,7.00
2013,02,19,10,52,6.90
2013,02,19,10,53,6.90
2013,02,19,10,54,6.80
2013,02,19,10,55,6.80
2013,02,19,10,56,6.80
2013,02,19,10,57,6.80
2013,02,19,10,58,6.80
2013,02,19,10,59,7.00
2013,02,19,11,00,7.00
2013,02,19,11,01,7.10
2013,02,19,11,02,7.20
2013,02,19,11,03,7.10
2013,02,19,11,04,7.10
2013,02,19,11,05,7.10
2013,02,19,11,06,7.10
2013,02,19,11,07,7.00
2013,02,19,11,08,7.00
2013,02,19,11,09,7.00
2013,02,19,11,10,7.00
2013,02,19,11,11,7.00
2013,02,19,11,12,7.00
2013,02,19,11,13,7.00
2013,02,19,11,14,7.00
2013,02,19,11,15,7.00
2013,02,19,11,16,6.90
2013,02,19,11,17,6.90
2013,02,19,11,18,7.00
2013,02,19,11,19,7.10
2013,02,19,11,20,7.20
2013,02,19,11,21,7.30
2013,02,19,11,22,7.30
2013,02,19,11,23,7.30
2013,02,19,11,24,7.30
2013,02,19,11,25,7.30
2013,02,19,11,26,7.40
2013,02,19,11,27,7.40
2013,02,19,11,28,7.30
2013,02,19,11,29,7.20
2013,02,19,11,30,7.20
2013,02,19,11,31,7.20
2013,02,19,11,32,7.20
2013,02,19,11,33,7.20
2013,02,19,11,34,7.20
2013,02,19,11,35,7.20
2013,02,19,11,36,7.20
2013,02,19,11,37,7.20
2013,02,19,11,38,7.20
2013,02,19,11,39,7.40
2013,02,19,11,40,7.50
2013,02,19,11,41,7.50
2013,02,19,11,42,7.50
2013,02,19,11,43,7.50
2013,02,19,11,44,7.50
2013,02,19,11,45,7.50
2013,02,19,11,46,7.40
2013,02,19,11,47,7.30
2013,02,19,11,48,7.30
2013,02,19,11,49,7.30
2013,02,19,11,50,7.30
2013,02,19,11,51,7.20
2013,02,19,11,52,7.20
2013,02,19,11,53,7.20
2013,02,19,11,54,7.20
2013,02,19,11,55,7.10
2013,02,19,11,56,7.10
2013,02,19,11,57,7.10
2013,02,19,11,58,7.20
2013,02,19,11,59,7.30
2013,02,19,12,00,7.40
2013,02,19,12,01,7.60
2013,02,19,12,02,7.70
2013,02,19,12,03,7.80
2013,02,19,12,04,7.80
2013,02,19,12,05,7.90
2013,02,19,12,06,7.90
2013,02,19,12,07,8.00
2013,02,19,12,08,8.00
2013,02,19,12,09,8.10
2013,02,19,12,10,8.20
2013,02,19,12,11,8.20
2013,02,19,12,12,8.30
2013,02,19,12,13,8.20
2013,02,19,12,14,8.30
2013,02,19,12,15,8.30
2013,02,19,12,16,8.30
2013,02,19,12,17,8.30
2013,02,19,12,18,8.20
2013,02,19,12,19,8.10
2013,02,19,12,20,8.00
2013,02,19,12,21,7.90
2013,02,19,12,22,7.90
2013,02,19,12,23,7.80
2013,02,19,12,24,7.70
2013,02,19,12,25,7.70
2013,02,19,12,26,7.70
2013,02,19,12,27,7.70
2013,02,19,12,28,7.70
2013,02,19,12,29,7.70
2013,02,19,12,30,7.70
2013,02,19,12,31,7.70
2013,02,19,12,32,7.70
2013,02,19,12,33,7.70
2013,02,19,12,34,7.70
2013,02,19,12,50,7.60
2013,02,19,12,51,7.60
2013,02,19,12,52,7.70
2013,02,19,12,53,7.70
2013,02,19,12,54,7.80
2013,02,19,12,55,7.80
2013,02,19,12,56,7.90
2013,02,19,12,57,7.90
2013,02,19,12,58,8.00
2013,02,19,12,59,8.10
2013,02,19,13,00,8.20
2013,02,19,13,01,8.40
2013,02,19,13,02,8.50
2013,02,19,13,03,8.60
2013,02,19,13,04,8.70
2013,02,19,13,05,8.70
2013,02,19,13,06,8.70
2013,02,19,13,07,8.70
2013,02,19,13,08,8.70
2013,02,19,13,09,8.70
2013,02,19,13,10,8.70
2013,02,19,13,11,8.80
2013,02,19,13,12,8.80
2013,02,19,13,13,8.70
2013,02,19,13,14,8.70
2013,02,19,13,15,8.60
2013,02,19,13,16,8.50
2013,02,19,13,17,8.40
2013,02,19,13,18,8.30
2013,02,19,13,19,8.30
2013,02,19,13,20,8.30
2013,02,19,13,21,8.20
2013,02,19,13,22,8.30
2013,02,19,13,23,8.30
2013,02,19,13,24,8.40
2013,02,19,13,25,8.40
2013,02,19,13,26,8.40
2013,02,19,13,27,8.30
2013,02,19,13,28,8.30
2013,02,19,13,29,8.30
2013,02,19,13,30,8.40
2013,02,19,13,31,8.30
2013,02,19,13,32,8.40
2013,02,19,13,33,8.40
2013,02,19,13,34,8.40
2013,02,19,13,35,8.40
2013,02,19,13,36,8.50
2013,02,19,13,37,8.60
2013,02,19,13,38,8.70
2013,02,19,13,39,8.80
2013,02,19,13,40,8.90
2013,02,19,13,41,9.00
2013,02,19,13,42,9.10
2013,02,19,13,43,9.20
2013,02,19,13,44,9.20
2013,02,19,13,45,9.20
2013,02,19,13,46,9.20
2013,02,19,13,47,9.20
2013,02,19,13,48,9.10
2013,02,19,13,49,9.00
2013,02,19,13,50,8.90
2013,02,19,13,51,8.90
2013,02,19,13,52,8.80
2013,02,19,13,53,8.80
2013,02,19,13,54,8.80
2013,02,19,13,55,8.70
2013,02,19,13,56,8.70
2013,02,19,13,57,8.60
2013,02,19,13,58,8.50
2013,02,19,13,59,8.50
2013,02,19,14,00,8.40
2013,02,19,14,01,8.30
2013,02,19,14,02,8.30
2013,02,19,14,03,8.30
2013,02,19,14,04,8.30
2013,02,19,14,05,8.30
2013,02,19,14,06,8.30
2013,02,19,14,07,8.30
2013,02,19,14,08,8.30
2013,02,19,14,09,8.30
2013,02,19,14,10,8.30
2013,02,19,15,52,8.90
2013,02,19,15,53,8.90
2013,02,19,15,54,8.90
2013,02,19,15,55,8.90
2013,02,19,15,56,8.90
2013,02,19,15,57,8.90
2013,02,19,15,58,8.90
2013,02,19,15,59,8.90
2013,02,19,16,00,8.90
2013,02,19,16,01,8.90
2013,02,19,16,02,8.90
2013,02,19,16,03,8.90
2013,02,19,16,04,8.90
